Вернуться в каталог

STARLINK-5134

АктивенСвязьVLEO
NORAD 53976·PAYLOAD·🇺🇸 United States

Запущен Oct 5, 2022 с Vandenberg Space Force Base

Loading…

Ближайшие Пролёты (ближайшие 24 часа)

TLE

СвежийSource: CelesTrak SupGP

Эпоха: Sep 14, 2026, 13:16 UTC

1 53976C 22125N   26257.55326389 -.00016051  00000+0 -47417-3 0  2572
2 53976  53.1593  65.2367 0001092  92.7754 270.1277 15.34402690    14

Отслеживайте STARLINK-5134 в реальном времени с AllMySat

Download on the App Store